Погода в Елеце

Погода в Елеце : погода сейчас, прогноз погоды и архив. Всё, что Вы хотите узнать о погоде в Елеце!

Хотите узнать прогноз погоды в Елеце? Тогда Вам сюда: Погода в Елеце

Поиск расширенной информации на нашем сайте:

Другие новости

Новости СМИ2

Главная страница сайта

Новости сайта

02.10.2013

Напоминаем, что на нашем новом сайте вы можете получить высокодетализированные прогнозы погоды по пунктам России, СНГ и мира (включающие важные для авиации метеовеличины, такие как направление и скорость ветра, видимость, явления погоды, количество и форма облачности, нижняя и верхняя граница облачности), а также ознакомиться с разнообразными материалами по авиационной метеорологии и подборкой полезных ссылок на эту тему.

Сайт Метеоцентр.Азия посвящён разработке технологий оптимизации авиаметеорологического обслуживания, включая проектирование и перспективное создание нескольких автоматизированных авиаметеорологических систем:
- система выпуска высокодетальных прогностических карт явлений погоды для нижнего воздушного пространства по России и ближнему зарубежью;
- система верификации прогнозов TAF (выпускаемых синоптиками официальных АМСГ РФ и ближнего зарубежья) и AUTOTAF (выпускаемых сайтом Метеоцентр.Азия) - выявление ошибок, онлайн-сопоставление с фактической погодой METAR, автоматическое внесение коррективов в прогнозы при резком отклонении фактической погоды от прогноза, подсчёт оправдываемости прогнозов по элементам и в целом;
- система обработки, анализа и отображения авиаметеорологической информации для применения провайдерами метеорологической информации.

Рекомендуем: Гусь хрустальный люстры магазин.

Погода в Елеце - сегодня

Время (UTC), дата Ветер
(°,м/с) 
Видим.   Явления Облачность Т
(°С)
Тd
(°С)
f(%) Тe
(°С)
Pmin
(гПа)
dP
(гПа)
Po
(мм)
O2
(г/м3)
Тmin Tmax R s Состояние
почвы
15 25.02.17 260 (З) 4{10}  10 км    3/0 средняя 
[Ac trans]
-1.6 -7.6 64 -4  1005.3  1.5  738  300    +2.2     
18 25.02.17 270 (З) 10 км    3/0 средняя 
[Ac trans]
-2.6 -4.9 84 -5  1006.9  1.6  739  301           
21 25.02.17 270 (З) 10 км    ясно 
-3.3 -6.5 78 -6  1007.4  0.5  740  302           
00 26.02.17 260 (З) 4{10}  10 км    ясно 
-4.1 -6.7 82 -7  1008.6  741  304           
03 26.02.17 250 (З) 10 км    6/0 средняя, верхняя 
[Ac trans|Ci fib]
-5.2 -7.7 83 -8  1009.7  1.1  741  305  -5.4      26  неравномерный
мокрый или
старый снег
100% 
06 26.02.17 310 (СЗ) 6-10{13}  20000 м  в посл. час снег  6/3 600 м средняя 
[Sc|Ac trans]
-2.9 -7.1 73 -7  1011.9  2.3  743  303           
09 26.02.17 300 (СЗ) 5-10{12}  20000 м  {снег}  3/3 1000 м 
[Cu hum]
-2.3 -9.5 58 -6  1014.3  2.3  745  304           
12 26.02.17 260 (З) 6-12{12}  20000 м  {снег}  8/0 средняя, верхняя 
[Ac trans|Ci]
-1.2 -7.1 64 -5  1014.4  0.3  745  302           
15 26.02.17 240 (ЮЗ) 4{12}  20000 м    9/0 средняя, верхняя 
[Ac trans|Ci]
-1.8 -5.6 75 -5  1014.3  -0.3  745  303    -1.2  0.0     
18 26.02.17 230 (ЮЗ) 10 км    6/0 средняя, верхняя 
[Ac trans|Ci fib]
-2.2 -4.7 83 -4  1013.3  -1  744  303           
21 26.02.17 220 (ЮЗ) 4{10}  4000 м  слаб. снег  10/9 300 м средняя 
[Sc|Ac und]
-2.1 -3 94 -5  1011.2  -2  743  302           
00 27.02.17 220 (ЮЗ) 5-11{11}  4000 м  слаб. снег  10/10 300 м 
[Frnb|Ns]
-1.1 -2.4 91 -4  1009  -2  741  300           
03 27.02.17 230 (ЮЗ) 4{11}  4000 м  дымка{снег}  10/8 600 м средняя 
[Sc|Ac und]
+0 -1.2 92 -2  1007.7  -1.2  740  298  -2.4    0.6  27  неравномерный
сухой снег
100% 
06 27.02.17 230 (ЮЗ) 4{10}  4000 м  в посл. час снег  10/10 300 м 
[Frnb]
+0.8 -0 94 -2  1007.2  -0.4  740  297           
09 27.02.17 240 (ЮЗ) 5{11}  4000 м  слаб. морось{снег}  10/10 300 м 
[St]
+0.9 +0.6 98 -2  1007.6  0.4  740  297           
12 27.02.17 270 (З) 4{10}  4000 м  дымка{снег, морось}  10/10 300 м 
[St]
+2 +0.7 91 1008.8  1.1  741  296           
15 27.02.17 260 (З) 10 км    9/8 600 м средняя 
[Sc|Ac und]
+2.2 +0.3 87 1010.5  1.7  742  297    +2.6  0.1     
18 27.02.17 250 (З) 10 км    9/4 600 м средняя 
[Sc|Ac und]
+2.2 +0.3 87 +1  1012.7  2.2  744  297           
21 27.02.17 270 (З) 10 км    9/3 600 м средняя 
[Sc|Ac trans]
+2.2 +0.3 87 +1  1014.6  1.8  745  298           
00 28.02.17 260 (З) 4000 м  дымка  ясно 
+0.5 -0.3 94 1016.3  1.7  747  300           
03 28.02.17 200 (Ю) 4000 м  дымка  9/5 300 м средняя 
[St|Ac trans]
-1.6 -1.8 99 -1  1018.9  2.2  748  303  -2      26  неравномерный
мокрый или
старый снег
100% 
06 28.02.17 220 (ЮЗ) 4000 м  дымка  9/0 средняя 
[Ac und]
+0.2 -0.1 98 +1  1020.6  1.9  750  302           
09 28.02.17 200 (Ю) 4000 м  дымка  9/0 средняя 
[Ac und]
+3 +0.3 82 +2  1021.4  1.1  750  299           
12 28.02.17 200 (Ю) 10 км    9/0 средняя 
[Ac und]
+3.8 -1.8 67 +3  1021.5  0.1  751  298           
15 28.02.17 190 (Ю) 10 км  {снег, дождь}  10/6 600 м средняя 
[Sc|Ac und]
+2.8 -0.8 77 +4  1021  -0.5  750  299    +4  0.1     
Время (UTC), дата Ветер
(°,м/с) 
Видим.   Явления Облачность Т
(°С)
Тd
(°С)
f(%) Тe
(°С)
Pmin
(гПа)
dP
(гПа)
Po
(мм)
O2
(г/м3)
Тmin Tmax R s Состояние
почвы

Для получения пояснительной информации подведите курсор к названию столбца.

ПОГОДА в Елеце - архив

Всё, что Вы хотите узнать о погоде в Елеце - удобно и подробно!

Выберите нужную дату (начиная с 1 января 2015* года) и нажмите кнопку "Найти".
Будут отображены архивные сводки погоды по пункту Елец, начиная с указанной даты.


Отображать данные в формате CSV (для использования в таблицах Excel)


Внимание! Наш архив погоды предназначен исключительно для личного некоммерческого использования в познавательных целях. Если Вам необходимы официальные справки о состоянии погоды (для производственных, юридических, коммерческих и т.п. целей), обращайтесь в органы Росгидромета.

*Примечание: данная дата относится к архиву по метеостанциям СССР (Россия, СНГ, Балтия).
Архив по метеостанциям Зарубежной Европы и Азии (кроме Китая) хранится 10 дней, по другим регионам земного шара (Китай, Африка, Америка, Австралия, Океания) - 1 день.

Елец - район местоположения метеостанции


Название, широта, долгота, высота метеостанции:
Елец 52.6°ш. 38.5°д. 168 м над ур. моря [Российская Федерация]

Дополнительная информация

В oтличие oт бoльшинства пoгoдных сайтoв мы публикуем пoдрoбную метеoинфoрмацию в детальнoм прoфессиoнальнoм фoрмате.

Характеристики температуры и влажнoсти вoздуха измеряются на высoте 2 м в тени вдали oт зданий и деревьев.
Скoрoсть ветра измеряется на высoте 10 м (на урoвне рoста челoвека скoрoсть ветра ниже в 1.5-2 раза). Если метеoстанция нахoдится в гoрoде или в лесу, тo скoрoсть ветра занижена на 2-4 м/с пo сравнению с oткрытым местoм. Скoрoсть ветра над акватoриями крупных рек и oзёр, а также на вершинах хoлмoв на 2-5 м/с выше, чем в oбычных услoвиях.
Атмoсфернoе давление в разных тoчках местнoсти мoжет значительнo oтличаться oт давления на метеoстанции, в зависимoсти oт услoвий рельефа (при пoдъёме на 10 м давление пoнижается примернo на 1 мм рт.ст.).